Hourly Data Report for June 20, 2021

WINNIPEG THE FORKS
MANITOBA
Current Station Operator: ECCC - MSC

49°53'18.008" N
97°07'46.007" W
230.00 m
5023262
71579
XWN

Download Data

Hourly Data (June 2021)
Hourly Data Report for June 20, 2021
TIME
LST
Temp Definition
°C
Dew Point Definition
°C
Rel Hum Definition
%
Precip. Amount Definition
mm

Wind Dir Definition
10's deg

Wind Spd Definition
km/h
Visibility Definition
km
Stn Press Definition
kPa
Hmdx Definition


Wind Chill Definition


Weather Definition


00:00 19.1 9.8 55 0.0 28 3   97.62     LegendNANA
01:00 17.2 11.4 68 0.0 34 4   97.62     LegendNANA
02:00 17.1 11.9 71 0.0 28 2   97.64     LegendNANA
03:00 16.6 12.2 75 0.0 22 7   97.63     LegendNANA
04:00 16.8 11.5 71 0.0 28 4   97.62     LegendNANA
05:00 16.3 11.6 74 0.0 29 5   97.64     LegendNANA
06:00 15.7 11.0 74 0.0 33 8   97.70     LegendNANA
07:00 15.9 10.5 70 0.0 35 9   97.78     LegendNANA
08:00 16.7 10.9 68 0.0 35 9   97.86     LegendNANA
09:00 17.5 10.2 62 0.0 33 13   97.90     LegendNANA
10:00 17.3 9.3 59 0.0 35 12   97.93     LegendNANA
11:00 18.1 7.8 51 0.0 35 14   97.99     LegendNANA
12:00 17.2 6.4 49 0.0 35 16   98.01     LegendNANA
13:00 17.3 3.7 40 0.0 34 15   98.06     LegendNANA
14:00 18.0 2.6 36 0.0 35 14   98.11     LegendNANA
15:00 18.1 1.8 33 0.0 34 14   98.17     LegendNANA
16:00 17.3 2.8 38 0.0 35 16   98.23     LegendNANA
17:00 15.7 2.0 39 0.0 35 17   98.30     LegendNANA
18:00 16.3 -0.7 31 0.0 34 17   98.34     LegendNANA
19:00 15.6 -1.4 31 0.0 34 17   98.41     LegendNANA
20:00 13.8 -2.4 33 0.0 34 12   98.48     LegendNANA
21:00 13.1 -2.9 33 0.0 33 11   98.55     LegendNANA
22:00 11.7 -0.8 42 0.0 33 10   98.60     LegendNANA
23:00 10.9 0.3 48 0.0 34 8   98.62     LegendNANA

Notes on Data Quality.

Legend

  • E = Estimated
  • M = Missing
  • NA = Not Available*
  • [empty] = Indicates an unobserved value
Date modified: